Location: Az?znagar
(16.8373°N, 80.5091°E)
Time: 12:09:23
(UTC+00:00)

Nadezhda 4 Rocket - Pass Details

Date: 04 December 2021
Orbit: 949 x 992 km, 82.9° (Epoch: 26 January)

Event Time Altitude Azimuth Distance (km) Brightness Sun altitude
Rises 00:18:52 0° 185° (S) 3,610 7.2 -8.3°
Reaches altitude 10° 00:21:21 10° 185° (S) 2,668 6.5 -7.8°
Maximum altitude 00:27:27 84° 273° (W) 963 4.0 -6.4°
Drops below altitude 10° 00:33:37 10° 2° (N) 2,695 6.1 -5.1°
Sets 00:36:08 0° 3° (N) 3,648 6.8 -4.5°
